Theta_e
300 300 300 300 300 300 301 301 300 301 301 301 301 301 301 301 301 297 292 291 289 283 282 282 283 278 278 275 269 270 271 270 269 262 259 268 261 269 266 269 268 267 259 254 253 256 260 273 273 268 271 275 274 275
300 299 300 300 300 300 300 300 300 301 301 301 300 300 300 300 301 300 291 293 294 286 281 284 286 287 284 281 277 269 273 266 274 267 263 265 260 263 264 260 271 265 269 263 265 264 274 276 275 278 279 276 277 276
297 298 299 299 299 300 300 300 300 300 300 300 300 300 300 300 300 298 291 291 290 285 284 283 282 285 286 286 286 277 271 278 277 279 272 273 268 270 260 262 266 271 273 270 271 274 275 277 279 279 278 277 278 278
296 297 297 298 299 299 299 299 300 300 300 300 300 300 300 299 299 299 292 293 291 286 279 278 281 282 286 287 285 285 283 280 281 280 277 273 266 276 271 272 271 273 272 270 271 275 276 277 278 279 279 278 277 275
296 296 296 297 298 298 298 299 299 299 299 299 299 299 299 299 299 296 293 293 294 286 278 278 277 280 283 285 283 283 282 280 280 277 276 273 274 275 272 274 272 276 273 271 270 276 275 276 279 277 277 276 273 272
295 296 296 296 296 297 297 298 298 298 298 298 299 298 299 298 298 290 285 291 294 292 282 276 279 274 278 281 282 281 282 281 281 278 277 277 279 277 271 268 275 277 278 278 276 279 278 279 273 272 272 270 270 269
294 295 295 295 295 296 296 297 297 297 297 298 298 298 298 298 293 286 282 286 294 292 282 277 274 274 278 277 274 278 280 280 280 278 276 276 276 278 274 269 276 278 278 278 277 273 275 273 271 269 269 268 267 266
293 293 294 294 294 295 295 296 296 296 297 297 298 298 298 298 296 289 291 294 293 287 284 275 271 265 274 270 271 278 276 278 278 277 274 274 275 276 270 275 277 278 278 272 268 268 268 267 267 266 265 264 262 263
292 292 292 293 293 294 294 295 295 296 296 297 297 297 294 291 285 284 295 295 292 286 277 275 270 264 274 273 274 271 277 271 278 273 274 273 266 267 271 275 276 273 269 266 264 264 264 263 263 262 261 260 259 260
290 291 291 292 292 293 293 294 295 295 295 296 293 285 282 285 293 293 287 283 283 282 280 274 261 263 274 271 268 270 273 270 267 271 275 271 269 275 274 264 264 263 262 262 261 260 258 257 259 259 258 259 259 259
289 290 290 290 291 292 293 293 294 294 294 288 284 281 284 292 283 281 277 276 276 274 278 271 267 264 272 269 270 275 271 272 267 265 267 255 257 270 263 261 262 261 260 258 258 258 258 257 257 257 257 257 257 256
289 289 289 290 290 291 292 293 293 290 287 287 286 287 286 282 278 274 273 273 268 265 263 265 267 273 273 276 272 273 270 270 266 257 260 255 265 263 260 259 258 257 256 255 255 255 256 257 257 255 255 254 254 255
289 289 289 289 290 290 291 292 293 292 291 285 282 278 278 276 270 269 265 262 259 257 261 264 267 272 274 276 273 272 268 266 259 261 259 262 261 255 254 255 254 254 254 254 253 253 253 253 253 252 252 253 253 252
289 289 289 289 289 290 290 291 292 291 285 278 275 270 271 269 271 265 264 264 265 265 264 265 263 269 273 272 273 267 267 264 261 257 257 261 253 251 252 252 250 251 250 250 249 250 251 251 251 251 251 251 250 250
288 288 289 288 289 289 290 290 291 289 282 276 275 269 270 260 253 250 248 259 258 263 268 265 265 274 269 270 272 268 262 260 259 259 259 251 251 251 251 250 248 249 248 246 246 246 248 249 248 248 248 247 247 248
288 288 283 288 289 289 289 289 287 285 281 277 271 267 261 261 256 254 250 259 260 266 263 267 265 268 267 268 267 264 260 257 262 253 248 252 250 250 248 248 249 245 244 244 244 244 247 247 247 247 246 247 247 247
287 275 286 288 288 288 288 283 282 271 272 268 263 259 262 264 265 262 261 261 265 264 262 264 263 263 267 265 262 258 259 259 247 245 249 250 250 250 248 242 242 243 243 242 241 241 242 244 241 241 244 248 247 250
277 278 287 287 285 281 273 271 271 268 262 259 264 258 256 254 256 257 256 262 265 264 262 262 266 262 260 258 255 254 247 244 246 250 250 247 244 240 240 241 242 241 242 242 240 241 240 242 244 247 247 249 253 255
281 282 286 286 283 273 269 264 265 260 253 251 255 255 255 254 255 255 254 260 260 260 262 262 263 261 258 251 249 244 241 247 247 249 247 243 245 241 241 240 241 241 241 241 242 244 245 245 248 251 254 256 255 256
282 282 282 282 279 271 264 262 265 259 256 255 251 250 252 252 253 252 253 259 260 261 262 258 258 249 250 247 247 245 246 247 245 242 244 247 246 241 243 242 244 242 242 242 243 249 247 250 253 254 255 256 255 255
275 274 278 273 269 266 263 260 255 257 256 252 252 253 251 251 248 248 251 255 259 260 256 246 243 245 242 239 239 240 246 247 244 244 245 244 245 244 243 243 242 242 243 243 244 249 252 252 253 254 254 254 255 256
269 275 268 273 266 260 258 258 256 258 254 250 252 252 247 248 248 250 252 254 254 247 249 247 244 239 239 241 240 237 238 238 237 242 245 245 246 248 248 248 249 246 246 248 250 251 252 253 253 253 253 253 254 254
268 269 265 265 261 257 254 257 251 251 253 250 251 253 250 249 249 253 255 248 246 243 238 237 236 234 237 235 235 235 235 239 239 239 241 244 247 249 251 250 251 250 250 252 252 252 252 253 253 252 252 252 252 252
262 255 254 253 256 253 253 252 254 250 250 251 252 251 249 247 248 251 251 243 242 238 237 236 236 239 239 240 239 239 238 237 239 240 240 243 245 249 251 252 251 251 252 252 252 252 252 251 252 252 252 250 250 249
256 247 250 248 249 249 249 249 250 253 251 247 249 248 244 238 244 243 245 242 238 237 238 234 236 239 240 237 238 239 238 244 246 245 246 247 249 250 251 252 252 252 252 251 251 250 250 250 250 250 250 249 248 248
244 241 244 238 244 248 246 248 247 246 242 242 241 239 237 243 246 247 243 241 238 239 239 242 243 240 241 243 247 247 248 248 249 249 250 252 252 251 250 250 250 251 252 251 249 249 249 250 249 249 249 249 250 248
242 240 241 241 242 242 243 242 241 241 241 243 240 241 241 245 244 246 243 242 242 240 242 244 247 248 248 246 246 247 249 252 252 252 251 251 252 252 252 250 250 252 251 250 249 248 248 248 248 249 249 249 248 247
239 237 241 240 239 235 239 239 240 241 240 239 239 243 246 247 246 247 247 248 241 241 244 245 247 248 247 249 251 253 252 252 251 251 251 251 251 251 251 252 253 257 251 250 250 250 249 248 248 247 247 247 249 246
243 237 237 241 239 240 238 239 239 237 239 237 243 246 247 247 244 242 248 245 242 246 247 247 247 247 249 251 253 252 252 251 250 249 248 249 249 251 250 250 251 251 250 249 253 255 251 249 249 249 249 248 248 241
242 238 245 246 246 245 241 238 236 232 232 234 235 241 243 242 242 241 239 240 244 245 245 247 248 251 251 251 251 249 246 247 248 249 246 246 247 246 242 243 245 245 243 241 247 247 250 248 246 243 244 244 243 244
233 233 238 237 240 237 234 231 228 229 229 230 227 234 236 236 240 239 241 241 242 242 245 246 246 247 249 248 244 243 246 244 242 245 244 244 244 245 245 246 246 245 244 244 244 244 245 243 242 243 243 244 245 246
234 233 237 240 239 233 229 229 229 232 230 233 235 229 236 240 245 247 246 243 244 246 248 245 244 247 244 244 241 241 246 243 245 248 248 248 248 248 249 249 246 244 243 245 245 245 244 243 245 245 246 245 245 245
238 236 236 238 239 238 234 233 235 236 234 234 235 230 230 236 245 246 245 241 243 241 241 241 242 241 242 243 244 246 250 251 250 254 255 255 253 253 251 249 248 246 246 246 247 246 245 245 246 246 246 246 247 247
Wind_Speed
22 22 22 21 21 22 21 20 20 20 20 19 19 19 18 17 19 13 3 7 9 4 7 8 9 7 3 4 5 5 4 3 3 3 5 4 3 4 1 4 4 5 4 4 4 2 9 4 3 6 7 4 6 7
24 23 23 23 24 24 24 24 23 22 21 20 19 19 21 18 19 14 5 7 8 5 4 4 15 14 14 10 7 3 7 6 5 4 1 2 2 1 4 5 3 4 7 6 11 8 4 5 6 14 11 11 13 5
21 21 24 24 22 23 26 24 23 24 23 22 22 22 22 19 18 15 4 5 3 4 4 4 12 7 6 13 10 7 3 6 5 4 4 4 7 4 4 8 4 6 6 10 13 12 15 16 17 12 10 12 10 7
24 23 22 24 24 23 22 23 23 23 22 24 22 20 19 20 19 16 5 5 6 3 4 7 2 5 8 11 14 16 9 1 3 4 6 5 4 6 6 8 8 9 4 8 13 14 15 18 16 18 16 9 5 2
25 24 24 23 24 24 24 23 23 22 22 23 22 21 22 21 19 11 4 6 8 6 2 1 1 7 7 12 14 12 11 7 5 4 5 7 4 5 4 5 12 13 17 12 16 16 14 19 16 1 4 1 3 3
25 25 24 24 23 23 24 24 24 23 22 22 22 23 23 20 16 4 3 6 11 8 5 4 1 3 3 7 14 14 13 8 6 5 5 5 4 7 6 9 20 14 13 16 20 17 19 17 7 4 2 2 2 2
21 21 22 22 22 23 23 24 24 24 23 24 24 24 24 24 8 6 6 4 11 7 3 3 3 3 1 4 2 3 5 4 5 4 6 6 6 8 6 14 19 15 15 12 9 0 8 3 2 3 3 2 3 3
19 20 21 21 21 22 23 23 24 24 24 24 24 24 24 25 19 10 8 11 10 3 4 4 3 4 4 3 3 4 5 4 5 4 1 5 3 6 8 13 18 20 15 4 4 3 3 3 2 3 4 5 4 4
21 21 21 21 21 22 23 23 23 22 23 23 23 21 10 10 5 3 15 20 6 4 4 4 6 6 5 3 2 2 3 5 4 6 6 6 5 8 9 13 16 7 4 4 2 2 3 2 1 2 4 4 5 7
19 20 22 23 23 22 21 21 20 20 19 20 11 5 5 5 14 14 5 4 8 5 5 4 2 3 5 5 2 3 3 5 5 7 4 6 10 12 5 3 5 5 5 3 3 2 1 1 1 4 4 5 7 9
21 21 21 20 22 21 20 20 20 18 17 4 5 4 2 14 4 4 5 5 5 4 3 2 5 5 4 5 6 5 4 4 4 6 7 3 5 8 7 6 7 7 6 5 3 2 1 2 4 6 7 6 7 8
21 23 24 22 19 19 20 19 18 11 3 6 6 4 3 4 4 7 7 4 4 8 1 6 5 4 3 3 3 5 4 5 5 2 4 4 7 2 7 7 6 6 5 4 2 2 3 5 5 6 6 7 8 8
21 22 19 20 21 19 17 19 17 12 14 4 3 6 6 5 8 9 10 2 3 4 5 3 3 4 3 3 3 4 6 5 3 2 6 7 2 4 5 4 5 4 3 2 2 2 4 5 5 5 7 7 8 8
19 18 20 17 20 19 18 17 19 13 2 4 5 7 7 6 6 6 7 8 6 5 8 5 3 4 2 5 3 4 2 3 2 2 8 5 3 5 3 3 3 2 3 3 3 4 5 6 6 6 7 7 7 9
16 17 17 17 19 19 18 17 19 8 4 5 4 6 6 1 3 2 1 4 1 5 7 4 3 4 3 4 4 4 2 5 7 8 6 2 4 5 4 2 1 2 2 3 3 4 6 6 6 7 8 7 7 8
16 14 7 12 13 13 15 14 7 4 4 5 3 4 2 2 4 2 1 2 3 5 3 3 5 4 5 4 6 7 6 8 8 4 2 4 4 3 2 1 2 3 4 4 4 4 5 6 6 6 7 7 7 7
9 3 6 13 13 14 13 3 3 5 1 4 3 2 3 2 2 2 1 2 2 3 4 4 7 9 2 3 4 5 8 5 4 2 2 3 3 3 1 2 4 4 4 4 3 4 5 5 3 3 6 6 6 7
3 5 10 10 5 7 4 5 3 4 5 3 2 3 2 2 1 2 2 2 2 3 4 6 4 3 6 7 6 5 2 1 2 3 3 2 2 3 3 4 4 3 4 5 4 4 3 4 4 4 5 6 5 5
6 9 10 2 8 6 3 4 3 5 3 1 3 2 2 3 2 2 1 2 1 1 3 2 4 5 5 3 3 2 2 2 4 3 2 1 1 2 2 3 4 3 3 3 2 3 4 4 4 3 4 5 4 3
5 12 14 17 9 4 5 4 3 5 3 2 3 2 3 2 1 2 2 2 1 2 1 3 5 3 4 3 2 3 3 4 4 3 1 1 2 2 2 2 2 2 2 3 3 3 3 3 3 4 4 4 4 4
6 5 10 6 4 6 5 2 4 2 3 3 1 1 2 2 3 2 1 3 1 2 2 2 2 1 2 1 1 1 4 3 3 4 4 3 2 2 0 1 1 1 1 1 2 3 4 3 5 5 4 4 4 3
2 8 3 5 5 4 6 4 5 3 4 3 2 0 3 2 1 1 2 1 0 0 0 2 2 2 1 1 1 1 3 5 3 3 4 4 3 1 1 1 1 1 1 0 1 2 3 4 4 4 4 4 5 3
5 4 5 5 5 6 2 2 5 5 4 1 0 2 3 1 1 3 1 1 1 1 0 1 1 1 3 1 1 2 2 5 3 2 2 2 2 2 2 2 1 0 1 0 1 2 2 5 4 4 4 4 3 3
11 9 7 6 6 4 2 4 2 3 2 3 2 2 1 2 5 2 2 2 2 2 1 2 2 3 3 3 1 2 3 3 3 1 2 3 1 2 2 2 2 2 2 2 2 2 2 3 4 3 3 3 3 3
8 10 6 7 4 4 5 3 3 2 3 2 2 1 2 3 2 1 2 4 1 2 2 1 1 1 4 1 2 3 3 3 3 3 2 4 2 0 1 2 3 3 2 1 2 2 2 2 3 3 4 3 4 5
10 5 5 1 3 3 1 3 1 3 3 2 1 2 2 3 3 3 4 3 3 4 5 6 5 2 1 3 3 2 3 4 2 1 2 4 4 3 2 2 1 3 4 3 2 3 4 3 3 5 5 6 6 6
7 5 3 1 2 2 3 2 2 3 2 3 3 1 3 3 2 4 3 2 2 4 4 4 5 3 3 2 2 2 2 5 4 2 1 1 3 3 4 4 5 4 4 5 4 4 4 4 5 5 6 6 5 5
2 3 3 5 3 0 4 2 2 1 2 2 2 1 4 5 4 3 2 1 3 1 2 2 2 3 2 2 2 3 2 2 1 2 3 4 5 5 5 5 5 7 4 5 5 5 5 6 6 6 6 7 8 3
3 2 1 4 3 4 2 2 2 2 1 2 2 1 2 3 2 1 2 2 1 2 3 3 1 1 2 2 2 2 2 3 3 1 2 3 3 3 3 4 4 4 3 3 7 9 8 7 8 8 9 7 6 3
4 4 3 2 2 3 2 1 1 2 1 0 2 3 3 4 3 1 2 3 1 1 2 2 3 3 3 3 1 2 2 4 5 5 4 4 5 3 1 3 3 4 2 3 5 5 7 5 5 3 3 4 4 4
2 3 3 2 0 2 2 2 2 1 2 2 2 2 4 5 5 2 2 1 1 1 2 1 1 2 3 3 3 1 4 2 4 6 5 4 4 5 5 5 5 4 4 5 5 5 6 3 4 6 7 8 9 7
3 3 1 3 3 3 3 3 1 2 3 3 2 2 4 2 3 3 1 1 1 2 4 2 2 4 4 3 2 3 4 3 4 5 7 5 6 7 6 5 4 4 4 5 6 6 6 8 7 8 9 10 10 9
1 1 1 2 3 4 3 3 4 4 3 3 2 1 2 1 1 4 2 2 3 3 4 4 4 3 5 5 5 4 6 5 7 9 10 11 12 11 6 5 5 5 7 7 7 7 9 9 10 11 11 11 11 10
Wind_Direction
257 253 252 249 248 252 253 238 244 250 237 239 235 232 231 235 229 199 186 192 182 215 226 188 189 168 150 146 151 225 43 333 45 93 125 233 185 224 272 244 202 196 173 199 63 15 275 187 91 154 214 247 213 211
267 262 263 258 256 254 252 249 248 247 239 231 238 230 239 238 230 219 214 187 203 224 257 210 218 212 202 171 154 229 189 167 185 109 269 77 275 288 177 257 121 285 188 199 194 209 232 191 216 275 267 260 269 228
273 274 265 263 259 257 253 251 249 244 242 247 244 244 239 236 238 232 192 150 183 245 248 190 226 222 184 196 183 192 268 184 202 166 153 201 230 145 190 245 207 252 197 243 263 250 257 271 275 267 256 233 247 244
270 268 268 265 261 259 254 251 250 250 242 237 243 238 230 231 229 228 201 174 198 210 231 246 350 191 191 203 205 214 221 117 144 157 210 200 182 204 230 250 234 230 164 249 256 259 267 264 257 261 272 270 269 85
264 264 264 264 262 259 256 252 251 252 251 247 245 239 231 229 232 227 187 197 193 215 290 260 303 233 199 191 200 204 203 193 196 200 210 229 203 221 226 242 247 238 249 244 255 258 252 266 270 27 235 239 43 11
263 260 261 261 260 259 258 253 251 249 248 247 240 237 235 228 225 113 233 208 196 191 249 227 258 259 202 181 197 196 203 199 204 204 220 223 184 196 233 242 253 259 238 235 252 256 258 272 99 71 141 87 41 344
268 265 262 261 261 260 258 254 251 250 248 244 241 237 230 226 198 182 192 179 186 169 237 256 235 258 138 108 159 135 170 187 201 213 225 237 228 204 239 252 266 254 238 237 251 261 258 149 199 73 65 27 359 310
268 266 265 265 264 262 259 256 253 251 249 246 240 236 232 229 224 215 194 143 136 184 219 215 224 4 187 169 197 176 160 172 204 222 174 213 235 211 242 246 255 258 258 197 123 57 67 77 88 31 20 351 326 334
274 271 270 273 270 265 261 257 253 251 249 245 239 233 237 216 195 198 177 197 169 183 233 182 172 230 162 174 126 7 160 180 191 212 213 157 222 216 222 245 250 244 168 138 93 79 96 116 64 25 347 338 316 315
269 269 270 268 264 270 262 257 251 248 250 241 223 193 203 187 136 130 140 185 204 195 210 196 67 213 158 162 174 127 183 211 198 217 163 211 239 244 243 103 108 119 107 113 128 201 56 169 317 323 310 299 291 299
268 263 263 268 267 259 258 252 244 250 244 199 186 192 106 160 93 153 184 197 186 198 207 139 174 148 244 143 181 217 199 189 216 238 172 252 269 237 131 124 112 104 104 85 64 56 54 220 279 298 297 296 296 293
274 271 262 258 262 262 252 247 241 240 197 194 121 114 133 190 177 178 180 159 159 207 234 147 205 172 163 131 142 182 199 187 228 102 111 264 248 125 130 123 100 85 82 86 47 347 318 297 305 296 290 286 285 285
259 262 267 268 251 253 255 243 233 219 164 116 189 187 166 168 200 185 166 218 146 177 196 164 189 138 137 186 190 196 204 217 92 116 217 223 177 120 128 121 114 76 57 49 357 317 295 286 285 270 284 279 283 285
264 263 259 257 254 245 244 247 234 213 193 154 171 202 203 179 195 178 177 166 211 146 150 133 116 154 179 181 186 213 123 128 165 207 232 234 169 128 117 89 98 60 350 321 305 310 301 289 285 277 270 276 277 274
281 254 255 258 250 246 236 236 234 209 190 181 191 214 204 346 28 273 274 99 266 132 127 92 60 149 176 213 204 124 163 228 203 221 228 196 147 143 139 123 101 305 310 292 269 266 277 280 280 280 270 264 259 269
298 271 245 246 245 234 228 232 221 191 202 177 114 132 81 70 323 340 310 135 206 130 77 63 129 171 195 189 196 207 156 216 239 208 179 115 123 112 129 171 268 253 254 265 266 249 278 273 265 264 288 282 273 256
277 205 305 245 239 227 228 156 195 47 42 107 112 356 86 56 93 65 186 188 228 84 155 129 149 200 89 187 217 194 206 234 183 187 104 81 132 141 178 270 274 275 284 280 276 281 264 272 293 336 313 293 285 272
34 302 325 293 218 76 47 26 63 88 76 33 123 100 49 42 73 59 339 327 174 150 123 190 121 163 189 181 242 216 164 149 43 116 124 130 173 226 203 236 285 277 274 273 257 284 290 309 316 289 281 277 291 293
22 353 314 23 92 86 72 33 3 84 67 39 48 50 82 100 59 23 343 342 2 0 78 70 158 185 216 198 179 218 214 186 155 148 134 206 180 188 243 247 261 279 285 278 305 289 277 255 257 283 302 311 311 310
24 23 39 49 62 85 82 34 30 80 102 108 51 37 70 68 11 352 349 357 25 69 207 231 213 190 140 186 169 160 151 147 121 82 354 254 187 149 210 200 249 272 300 327 316 321 332 326 331 330 322 327 329 334
33 341 31 59 62 51 70 87 62 86 117 86 269 68 101 56 37 31 23 327 237 223 214 154 221 190 60 355 343 81 103 128 165 153 166 163 221 167 242 281 252 22 91 331 346 326 0 349 326 330 331 333 338 348
313 13 54 42 80 57 68 16 105 131 94 174 111 301 61 72 49 348 265 190 215 148 89 155 168 158 113 137 190 119 157 113 85 86 76 85 110 134 203 220 129 317 309 316 330 339 330 329 334 335 339 340 350 0
24 35 52 20 85 54 1 3 68 2 86 319 276 101 52 18 320 296 212 57 295 34 103 94 188 302 131 250 105 68 134 126 122 154 164 180 206 221 206 196 189 207 301 271 318 314 319 332 331 337 335 338 342 349
30 46 33 41 21 82 10 38 57 76 59 49 73 116 133 336 329 35 244 271 265 354 21 210 164 79 19 28 85 215 209 146 117 71 195 136 180 238 201 217 197 209 230 288 294 302 308 317 328 331 335 335 335 323
73 1 10 20 17 52 53 41 25 67 97 54 113 280 291 5 61 13 233 272 272 240 221 214 180 137 144 242 301 266 215 150 142 161 241 180 170 109 240 231 226 211 168 244 259 274 291 295 301 309 314 310 320 321
68 321 46 291 339 57 32 100 97 152 117 86 240 276 14 82 69 256 243 233 226 198 188 185 169 135 287 198 141 146 206 181 140 140 253 187 196 188 202 210 247 267 189 193 197 249 277 285 291 304 301 305 308 306
61 339 336 5 111 108 71 52 68 88 101 158 217 105 86 88 254 259 287 219 215 231 202 169 167 157 156 169 239 259 157 161 176 181 156 194 212 197 191 204 225 238 161 180 198 210 249 277 286 283 284 290 264 262
122 25 56 311 30 8 126 69 68 98 228 246 80 66 135 169 226 258 222 302 214 249 143 132 133 135 144 198 171 136 138 133 309 293 271 243 228 220 215 226 230 227 197 205 221 222 224 239 255 266 268 272 285 246
37 338 43 3 7 42 63 121 201 253 287 107 119 299 273 253 257 292 334 325 313 90 92 101 19 101 66 51 89 123 131 150 138 297 299 287 328 292 197 207 216 219 216 226 252 243 228 232 242 245 251 256 270 271
8 356 331 20 39 26 311 356 251 277 297 243 299 303 290 281 266 315 328 355 35 202 198 166 145 161 176 173 204 291 239 197 193 180 197 234 229 246 248 237 242 242 215 213 250 268 287 302 307 315 298 289 273 273
314 8 37 37 99 271 261 310 303 320 18 17 347 144 253 306 307 253 251 247 264 79 97 116 219 215 176 193 179 181 291 272 219 238 245 256 263 260 255 245 239 227 221 231 241 244 257 253 242 263 269 269 269 262
5 65 65 3 314 295 20 43 8 41 335 25 313 338 316 328 318 299 20 112 80 227 231 195 183 246 217 232 230 246 232 260 240 233 237 238 248 249 247 247 229 212 223 236 236 238 235 244 259 256 263 266 265 265
262 198 194 313 354 360 331 36 12 356 18 17 316 224 234 210 108 291 325 209 207 215 229 225 238 240 236 234 233 249 244 248 261 268 260 252 252 257 253 237 228 215 225 236 240 235 242 243 254 257 258 260 264 265